GW6198 Weather Reports


time (UTC)temp
C
wind
direction
speed
KPH
gust
KPH
rain 1hr
cm
rain 24hr
cm
rain mn
cm
humidity
%
barometer
mb
20260505130252 17 241 11.3 11.3 0.00 0.00 0.00 86 1010.0
20260505124742 16 228 6.4 9.7 0.00 0.00 0.00 87 1009.6
20260505124239 16 235 6.4 9.7 0.00 0.00 0.00 87 1009.6
20260505123734 16 236 4.8 9.7 0.00 0.00 0.00 87 1009.3
20260505123232 16 233 8.0 8.0 0.00 0.00 0.00 87 1009.3
20260505122728 16 217 6.4 11.3 0.00 0.00 0.00 88 1009.4
20260505122225 16 213 4.8 9.7 0.00 0.00 0.00 88 1009.2
20260505121722 16 225 3.2 6.4 0.00 0.00 0.00 88 1009.3
20260505121219 16 219 3.2 4.8 0.00 0.00 0.00 88 1009.3
20260505120715 16 214 4.8 6.4 0.00 0.00 0.00 88 1009.4
20260505120211 16 208 3.2 4.8 0.00 0.00 0.00 88 1009.1
20260505115704 15 209 1.6 3.2 0.00 0.00 0.00 88 1009.1
20260505115203 16 214 3.2 4.8 0.00 0.00 0.00 88 1009.1
20260505114659 16 182 3.2 4.8 0.00 0.00 0.00 87 1009.1
20260505114155 16 176 3.2 3.2 0.00 0.00 0.00 87 1009.0
20260505113652 16 177 0.0 1.6 0.00 0.00 0.00 86 1009.1
20260505113149 16 172 1.6 3.2 0.00 0.00 0.00 86 1009.1
20260505112645 16 136 0.0 4.8 0.00 0.00 0.00 86 1009.0
20260505112143 16 177 1.6 3.2 0.00 0.00 0.00 86 1009.1
20260505111642 16 253 3.2 3.2 0.00 0.00 0.00 85 1009.2
20260505111139 16 226 3.2 3.2 0.00 0.00 0.00 85 1009.0
20260505110635 16 248 4.8 4.8 0.00 0.00 0.00 85 1009.1
20260505110132 16 269 1.6 3.2 0.00 0.00 0.00 84 1009.0
20260505102108 18 222 8.0 9.7 0.00 0.00 0.00 80 1009.0
20260505101606 18 239 6.4 9.7 0.00 0.00 0.00 79 1008.9
20260505101102 18 233 9.7 9.7 0.00 0.00 0.00 79 1008.8
20260505100559 18 244 9.7 16.1 0.00 0.00 0.00 78 1008.7
20260505100056 18 230 9.7 12.9 0.00 0.00 0.00 78 1008.7
20260505095552 18 233 11.3 12.9 0.00 0.00 0.00 78 1008.6
20260505095049 18 237 8.0 9.7 0.00 0.00 0.00 78 1008.6
20260505094545 19 242 8.0 12.9 0.00 0.00 0.00 77 1008.9
20260505094041 19 241 9.7 12.9 0.00 0.00 0.00 77 1008.5
20260505093538 19 237 9.7 12.9 0.00 0.00 0.00 76 1008.6
20260505093036 19 220 11.3 14.5 0.00 0.00 0.00 76 1008.5
20260505092533 20 200 3.2 11.3 0.00 0.00 0.00 75 1008.6
20260505092031 20 225 8.0 17.7 0.00 0.00 0.00 75 1008.5
20260505091527 20 209 9.7 16.1 0.00 0.00 0.00 75 1008.6
20260505091026 20 236 8.0 19.3 0.00 0.00 0.00 75 1008.4
20260505090524 20 195 8.0 19.3 0.00 0.00 0.00 75 1008.6
20260505090021 20 217 6.4 17.7 0.00 0.00 0.00 74 1008.6
20260505085519 20 235 14.5 19.3 0.00 0.00 0.00 74 1008.7
20260505085017 20 233 14.5 16.1 0.00 0.00 0.00 74 1008.6
20260505084515 20 230 14.5 17.7 0.00 0.00 0.00 74 1008.5
20260505084012 20 218 11.3 17.7 0.00 0.00 0.00 73 1008.7
20260505083509 20 186 8.0 12.9 0.00 0.00 0.00 73 1008.7
20260505083006 20 229 9.7 20.9 0.00 0.00 0.00 72 1008.8
20260505082502 20 202 8.0 17.7 0.00 0.00 0.00 72 1008.7
20260505081959 20 206 8.0 19.3 0.00 0.00 0.00 72 1008.7
20260505081455 20 221 12.9 20.9 0.00 0.00 0.00 71 1008.7
20260505080952 20 216 11.3 19.3 0.00 0.00 0.00 71 1008.5
20260505080448 20 217 8.0 25.7 0.00 0.00 0.00 71 1008.5
20260505075944 20 222 9.7 11.3 0.00 0.00 0.00 70 1008.7
20260505075440 20 206 9.7 14.5 0.00 0.00 0.00 70 1008.6
20260505074938 20 209 8.0 19.3 0.00 0.00 0.00 70 1008.8
20260505074436 21 192 8.0 17.7 0.00 0.00 0.00 69 1008.7
20260505073932 21 184 16.1 24.1 0.00 0.00 0.00 69 1009.1
20260505073430 21 230 14.5 17.7 0.00 0.00 0.00 69 1009.1
20260505072927 21 232 11.3 19.3 0.00 0.00 0.00 68 1009.0
20260505072423 21 222 9.7 22.5 0.00 0.00 0.00 68 1009.0
20260505071919 21 224 9.7 14.5 0.00 0.00 0.00 68 1009.0
20260505071415 21 219 6.4 14.5 0.00 0.00 0.00 67 1009.1
20260505070914 21 215 9.7 20.9 0.00 0.00 0.00 66 1009.0
20260505070409 21 233 16.1 22.5 0.00 0.00 0.00 65 1009.1
20260505065905 21 193 6.4 17.7 0.00 0.00 0.00 64 1009.1
20260505065402 21 217 8.0 20.9 0.00 0.00 0.00 64 1009.0
20260505064859 21 217 9.7 22.5 0.00 0.00 0.00 63 1009.2
20260505064356 22 200 12.9 17.7 0.00 0.00 0.00 63 1009.2
20260505063855 22 204 6.4 17.7 0.00 0.00 0.00 62 1009.0
20260505063355 22 212 11.3 24.1 0.00 0.00 0.00 62 1009.4
20260505062852 22 200 11.3 19.3 0.00 0.00 0.00 62 1009.3
20260505062349 22 237 16.1 22.5 0.00 0.00 0.00 61 1009.3
20260505061846 22 206 14.5 19.3 0.00 0.00 0.00 60 1009.3
20260505061344 22 201 11.3 17.7 0.00 0.00 0.00 60 1009.1
20260505060842 22 196 4.8 17.7 0.00 0.00 0.00 60 1009.2
20260505060338 22 229 9.7 11.3 0.00 0.00 0.00 59 1009.6
20260505055834 22 184 6.4 14.5 0.00 0.00 0.00 59 1009.6
20260505055330 22 193 12.9 22.5 0.00 0.00 0.00 58 1009.4
20260505054828 22 193 16.1 19.3 0.00 0.00 0.00 57 1009.6
20260505054325 22 209 12.9 17.7 0.00 0.00 0.00 57 1009.4
20260505053823 23 193 14.5 24.1 0.00 0.00 0.00 56 1009.4
20260505053320 22 212 20.9 25.7 0.00 0.00 0.00 56 1009.6
20260505052817 22 205 12.9 16.1 0.00 0.00 0.00 56 1009.7
20260505052313 22 212 9.7 17.7 0.00 0.00 0.00 55 1010.0
20260505051811 22 208 9.7 16.1 0.00 0.00 0.00 55 1009.8
20260505051308 22 218 14.5 20.9 0.00 0.00 0.00 54 1009.8
20260505050806 23 207 6.4 16.1 0.00 0.00 0.00 53 1009.8
20260505050304 23 200 14.5 16.1 0.00 0.00 0.00 53 1009.6
20260505041734 24 196 12.9 14.5 0.00 0.00 0.00 48 1009.3
20260505041231 24 197 14.5 14.5 0.00 0.00 0.00 48 1009.7
20260505040729 25 200 9.7 17.7 0.00 0.00 0.00 47 1009.6
20260505040226 25 190 12.9 16.1 0.00 0.00 0.00 46 1009.3
20260505035723 25 200 11.3 16.1 0.00 0.00 0.00 46 1009.3
20260505035219 25 191 12.9 25.7 0.00 0.00 0.00 45 1009.2
20260505034715 25 191 16.1 22.5 0.00 0.00 0.00 44 1009.6
20260505034212 26 200 17.7 22.5 0.00 0.00 0.00 43 1009.6
20260505033708 26 208 16.1 30.6 0.00 0.00 0.00 43 1009.6
20260505033207 26 200 22.5 35.4 0.00 0.00 0.00 43 1009.4
20260505032705 26 190 22.5 29.0 0.00 0.00 0.00 42 1009.1
20260505032200 26 190 22.5 38.6 0.00 0.00 0.00 42 1009.3
20260505031658 26 221 12.9 20.9 0.00 0.00 0.00 41 1009.1
20260505031154 26 205 19.3 25.7 0.00 0.00 0.00 38 1009.1
20260505030651 26 192 6.4 12.9 0.00 0.00 0.00 34 1009.0
20260505030147 26 205 9.7 20.9 0.00 0.00 0.00 34 1008.9
20260505025643 26 228 6.4 11.3 0.00 0.00 0.00 36 1008.9
20260505025142 26 226 8.0 19.3 0.00 0.00 0.00 35 1008.6
20260505024639 27 229 9.7 14.5 0.00 0.00 0.00 32 1008.7
20260505024136 28 197 8.0 19.3 0.00 0.00 0.00 28 1008.7
20260505023633 28 249 12.9 22.5 0.00 0.00 0.00 18 1008.6
20260505023130 28 259 20.9 22.5 0.00 0.00 0.00 18 1008.4
20260505022628 28 261 9.7 22.5 0.00 0.00 0.00 17 1008.2
20260505022125 28 239 20.9 24.1 0.00 0.00 0.00 17 1008.2
20260505021621 28 257 14.5 27.4 0.00 0.00 0.00 17 1008.4
20260505021118 28 265 11.3 25.7 0.00 0.00 0.00 17 1008.1
20260505020614 28 253 16.1 22.5 0.00 0.00 0.00 17 1007.9
20260505020110 28 268 14.5 27.4 0.00 0.00 0.00 17 1008.2
20260505015607 28 262 14.5 24.1 0.00 0.00 0.00 16 1008.0
20260505015104 28 253 19.3 25.7 0.00 0.00 0.00 16 1008.0
20260505014601 28 254 12.9 20.9 0.00 0.00 0.00 17 1008.2
20260505014058 28 245 12.9 19.3 0.00 0.00 0.00 18 1008.0
20260505013555 28 242 6.4 17.7 0.00 0.00 0.00 18 1007.7
20260505013052 28 238 8.0 14.5 0.00 0.00 0.00 17 1007.8
20260505012550 28 244 9.7 16.1 0.00 0.00 0.00 17 1007.7
20260505012047 29 236 14.5 17.7 0.00 0.00 0.00 16 1007.8
20260505011542 29 234 14.5 24.1 0.00 0.00 0.00 16 1007.7
20260505011040 29 232 16.1 20.9 0.00 0.00 0.00 17 1007.7
20260505010535 29 226 12.9 22.5 0.00 0.00 0.00 17 1007.7
20260505010032 30 239 16.1 17.7 0.00 0.00 0.00 16 1007.8
20260505005528 30 243 20.9 24.1 0.00 0.00 0.00 16 1007.8
20260505005026 30 240 14.5 27.4 0.00 0.00 0.00 16 1007.9
20260505004523 30 263 19.3 24.1 0.00 0.00 0.00 16 1007.7
20260505004020 30 258 19.3 30.6 0.00 0.00 0.00 15 1007.7
20260505003517 30 245 12.9 24.1 0.00 0.00 0.00 16 1007.8
20260505003014 30 259 11.3 20.9 0.00 0.00 0.00 16 1008.1
20260505002509 31 239 17.7 27.4 0.00 0.00 0.00 16 1007.9
20260505002008 31 242 16.1 29.0 0.00 0.00 0.00 16 1008.1
20260505001505 31 246 19.3 30.6 0.00 0.00 0.00 16 1008.2
20260505001002 31 245 24.1 29.0 0.00 0.00 0.00 16 1008.5
20260505000500 31 244 25.7 27.4 0.00 0.00 0.00 16 1008.4
20260504235956 31 255 32.2 32.2 0.00 0.00 0.00 16 1008.5
20260504235454 31 246 32.2 35.4 0.00 0.00 0.00 17 1008.4
20260504234950 30 252 22.5 29.0 0.00 0.00 0.00 18 1008.4
20260504234447 30 240 19.3 30.6 0.00 0.00 0.00 19 1008.4
20260504233944 30 250 11.3 16.1 0.00 0.00 0.00 20 1008.2
20260504233439 30 239 12.9 25.7 0.00 0.00 0.00 20 1008.5
20260504232937 30 236 12.9 24.1 0.00 0.00 0.00 20 1008.6
20260504232434 30 235 16.1 16.1 0.00 0.00 0.00 20 1008.5
20260504231931 30 239 9.7 24.1 0.00 0.00 0.00 20 1008.7
20260504231427 30 227 16.1 27.4 0.00 0.00 0.00 19 1008.7
20260504230923 30 239 22.5 33.8 0.00 0.00 0.00 19 1008.8
20260504230420 30 221 22.5 30.6 0.00 0.00 0.00 19 1008.8
20260504225920 30 248 24.1 29.0 0.00 0.00 0.00 18 1008.8
20260504225416 30 240 22.5 30.6 0.00 0.00 0.00 18 1009.1
20260504224913 30 249 25.7 30.6 0.00 0.00 0.00 18 1009.0
20260504224409 30 250 17.7 24.1 0.00 0.00 0.00 19 1009.3
20260504223907 31 254 24.1 38.6 0.00 0.00 0.00 18 1009.4
20260504223402 31 272 19.3 40.2 0.00 0.00 0.00 17 1009.3
20260504222858 31 238 24.1 43.5 0.00 0.00 0.00 16 1009.2
20260504222355 32 256 30.6 40.2 0.00 0.00 0.00 16 1009.0
20260504221854 32 274 27.4 40.2 0.00 0.00 0.00 15 1009.1
20260504221350 32 267 30.6 38.6 0.00 0.00 0.00 14 1009.2
20260504220848 31 254 17.7 41.8 0.00 0.00 0.00 14 1009.2
20260504220344 32 254 30.6 37.0 0.00 0.00 0.00 12 1009.0
20260504215841 31 236 17.7 30.6 0.00 0.00 0.00 13 1009.4
20260504215337 31 255 30.6 40.2 0.00 0.00 0.00 13 1009.3
20260504214834 31 262 25.7 38.6 0.00 0.00 0.00 15 1009.4
20260504214331 31 245 32.2 40.2 0.00 0.00 0.00 15 1009.6
20260504213828 31 241 24.1 29.0 0.00 0.00 0.00 17 1009.6
20260504213323 31 247 16.1 30.6 0.00 0.00 0.00 18 1009.6
20260504212821 31 274 22.5 30.6 0.00 0.00 0.00 19 1009.6
20260504212317 31 247 17.7 45.1 0.00 0.00 0.00 18 1009.8
20260504211815 31 234 25.7 35.4 0.00 0.00 0.00 19 1009.9
20260504211311 31 234 20.9 45.1 0.00 0.00 0.00 18 1010.1
20260504210808 31 257 19.3 33.8 0.00 0.00 0.00 19 1010.0
20260504210305 31 242 27.4 37.0 0.00 0.00 0.00 18 1010.1
20260504205803 31 240 27.4 38.6 0.00 0.00 0.00 19 1010.2
20260504205300 31 246 27.4 32.2 0.00 0.00 0.00 20 1010.2
20260504204758 31 249 19.3 30.6 0.00 0.00 0.00 21 1010.4
20260504204256 31 235 17.7 33.8 0.00 0.00 0.00 22 1010.4
20260504203755 31 246 27.4 30.6 0.00 0.00 0.00 23 1010.5
20260504203252 30 236 19.3 27.4 0.00 0.00 0.00 25 1010.6
20260504202752 30 247 17.7 33.8 0.00 0.00 0.00 25 1010.9
20260504202250 30 252 17.7 30.6 0.00 0.00 0.00 25 1010.7
20260504201747 30 237 20.9 30.6 0.00 0.00 0.00 25 1010.9
20260504201244 31 248 27.4 29.0 0.00 0.00 0.00 25 1010.9
20260504200742 30 259 12.9 24.1 0.00 0.00 0.00 26 1011.1
20260504200237 31 267 24.1 24.1 0.00 0.00 0.00 25 1011.1
20260504195734 30 258 19.3 30.6 0.00 0.00 0.00 26 1011.1
20260504195230 31 248 19.3 29.0 0.00 0.00 0.00 26 1011.4
20260504194727 31 228 25.7 32.2 0.00 0.00 0.00 26 1011.2
20260504194223 31 271 11.3 27.4 0.00 0.00 0.00 26 1011.4
20260504193720 30 280 12.9 27.4 0.00 0.00 0.00 25 1011.3
20260504193218 30 241 29.0 37.0 0.00 0.00 0.00 27 1011.4
20260504192716 30 252 20.9 24.1 0.00 0.00 0.00 28 1011.4
20260504192213 30 250 12.9 30.6 0.00 0.00 0.00 27 1011.5
20260504191712 30 267 14.5 32.2 0.00 0.00 0.00 31 1011.5
20260504191208 29 222 12.9 30.6 0.00 0.00 0.00 31 1011.6
20260504190703 29 244 14.5 24.1 0.00 0.00 0.00 32 1011.8
20260504190200 29 247 27.4 37.0 0.00 0.00 0.00 31 1011.9
20260504185657 29 253 17.7 30.6 0.00 0.00 0.00 32 1011.9
20260504185153 29 224 14.5 29.0 0.00 0.00 0.00 33 1012.0
20260504184649 29 265 12.9 38.6 0.00 0.00 0.00 33 1012.2
20260504184144 28 261 12.9 33.8 0.00 0.00 0.00 33 1012.3
20260504183642 29 253 24.1 29.0 0.00 0.00 0.00 34 1012.3
20260504183139 28 236 20.9 29.0 0.00 0.00 0.00 34 1012.4
20260504182637 28 246 22.5 30.6 0.00 0.00 0.00 35 1012.3
20260504182134 28 231 27.4 37.0 0.00 0.00 0.00 34 1012.5
20260504181631 28 239 17.7 25.7 0.00 0.00 0.00 35 1012.3
20260504181129 28 224 22.5 30.6 0.00 0.00 0.00 35 1012.5
20260504180628 28 243 27.4 32.2 0.00 0.00 0.00 34 1012.5
20260504180126 28 255 20.9 30.6 0.00 0.00 0.00 35 1012.6
20260504175623 28 244 25.7 35.4 0.00 0.00 0.00 35 1012.9
20260504175120 28 238 12.9 25.7 0.00 0.00 0.00 36 1013.0
20260504174618 28 238 24.1 32.2 0.00 0.00 0.00 34 1012.9
20260504174114 28 233 24.1 38.6 0.00 0.00 0.00 34 1013.0
20260504173611 28 243 17.7 22.5 0.00 0.00 0.00 34 1012.9
20260504173109 28 235 16.1 20.9 0.00 0.00 0.00 35 1013.1
20260504172605 28 233 9.7 24.1 0.00 0.00 0.00 36 1013.2
20260504172102 27 195 6.4 24.1 0.00 0.00 0.00 37 1013.2
20260504171558 27 228 16.1 22.5 0.00 0.00 0.00 38 1013.0
20260504171055 27 208 9.7 17.7 0.00 0.00 0.00 37 1013.2
20260504170551 26 229 14.5 20.9 0.00 0.00 0.00 39 1013.1
20260504150935 22 217 8.0 16.1 0.00 0.00 0.00 49 1013.5
20260504150432 22 228 11.3 17.7 0.00 0.00 0.00 51 1013.8
20260504140858 20 189 9.7 24.1 0.00 0.00 0.00 57 1013.9
20260504140354 19 198 11.3 17.7 0.00 0.00 0.00 57 1013.9